STARLINK-11469, 62227

Orbit data source: Space-Track

STARLINK-11469, 62227 is a payload satellite owned by SpaceX/Seattle (US) in LEO that was launched on Thu, 05 Dec 2024 UTC via an FALCON 9 launch vehicle from the Air Force Western Test Range (AFWTR). Payloads include a variety of satellites, spacecraft, and rockets equipped with specific instruments for various scientific and technological missions. These include communications satellites like Starlink; space stations such as the ISS; scientific satellites like the Hubble; Earth observation satellites from companies like Planet Labs, Umbra, and HawkEye 360; GPS; miniature CubeSats for education and research; and military/defense satellites.

Loading next visibility...
STARLINK-11469 details
Identifier
62227, 2024-231K
Orbit
LEO
Last TLE update19 hours ago
Origin
Flag of USSpaceX/Seattle (US)
ManufacturerSpaceX/Seattle
MissionOperational spacecraft
Bus & MotorSTARLINK V2M, Unknown motor
Mass730 kg wet, ~700 kg dry
Launch date (UTC)
2024-12-05 (2 months ago)
Launch vehicle
FALCON 9
Launch site
Air Force Western Test Range (AFWTR)
Object type
Payload
Rocket body
Debris
Shape & HBRUnknown
Radar Cross SectionLarge (>1 m²)

Expand to show TLE details & history

TLE from 19 hours ago
0 STARLINK-11469
1 62227U 24231K   25025.06963993  .00001453  00000-0  16849-4 0  9995
2 62227  53.1578 315.5766 0001160  88.9882 271.1269 15.69713747  9180
Epoch: 2025-01-25T01:40Z
Definitive object data (Epoch: 2025-01-25T01:40:16.889Z)
Latitude-0.00003°
Longitude165.88246°
Altitude360.616 km
Speed7.694 km/s
True Right ascension21h 02m 18s
True Declination0° 00' 00"
Sunlit
Object was in daylight at TLE epoch
Visualization TLE readout
Latitude29.82631°
Longitude-43.29503°
Altitude360.878 km
Speed7.697 km/s
Apparent Right ascension08h 23m 38s
Apparent Declination-4° 12' 57"
Sunlit
Object is in full shadow
Visualization observer readout
Local Sidereal Time21:57:40
Azimuth36.869° NE
Elevation-48.469°
Doppler factor1
Orbital elements
Apogee altitude360.759 km
Perigee altitude359.195 km
Semi-major axis6,738.114 km
Eccentricity0.000116
Inclination53.1578°
RAAN315.5766°
Arg. of periapsis88.9882°
True anomaly271.11361°
Mean anomaly271.1269°
Eccentric anomaly271.12025°
Mean motion3.92406 °/min
BSTAR0.000016849
Orbital period91.74 mins
Loading maneuver chart data...
Loading historical data...
Loading historical data...
Loading historical data...
Loading historical data...
Loading historical data...
Loading historical data...
Loading historical data...

STARLINK-11469 Visibility forecast

Observer location: undefined°, undefined

Span
Click to sort rows by Start time (UTC) header in descending order
Start Az.
Max El. time (UTC)
Max El. Az.
Max El.
End time (UTC)
End Az.
5 mins2025-01-25 21:42:32.274Z217.068° SW2025-01-25 21:45:32.274Z99.215° ESE38.903°2025-01-25 21:47:32.274Z58.491° ENE
4 mins2025-01-26 04:08:32.274Z341.668° N2025-01-26 04:09:32.274Z17.213° NNE30.699°2025-01-26 04:12:32.274Z104.961° ESE
|